When you browse on this site, cookies collect data to enhance your experience and personalize the content and advertising you see.
Visit our Privacy Policy to learn more. By continuing to use the site, you agree to this use of cookies and data.

Meteo pe oră la Dzhyakovo

Astăzi, 26 Septembrie, Sâmbătă

Timp Temperatura Precipitaţii Vânt Presiune Umiditate
00:00 +17°C° 0.2 mm 5 m/s 736 mmHg 86%
01:00 +18°C° 0 mm 4 m/s 736 mmHg 81%
02:00 +17°C° 0.1 mm 3 m/s 736 mmHg 81%
03:00 +17°C° 0.1 mm 3 m/s 736 mmHg 80%
04:00 +16°C° 0.1 mm 2 m/s 736 mmHg 80%
05:00 +15°C° 0 mm 2 m/s 737 mmHg 81%
06:00 +14°C° 0 mm 3 m/s 737 mmHg 81%
07:00 +15°C° 0 mm 2 m/s 738 mmHg 80%
08:00 +16°C° 0 mm 2 m/s 739 mmHg 74%
09:00 +17°C° 0 mm 3 m/s 739 mmHg 67%
10:00 +18°C° 0 mm 3 m/s 739 mmHg 60%
11:00 +18°C° 0 mm 4 m/s 739 mmHg 56%
12:00 +19°C° 0 mm 4 m/s 739 mmHg 52%
13:00 +19°C° 0 mm 4 m/s 739 mmHg 48%
14:00 +19°C° 0 mm 4 m/s 739 mmHg 47%
15:00 +19°C° 0 mm 5 m/s 740 mmHg 47%
16:00 +17°C° 0 mm 5 m/s 740 mmHg 46%
17:00 +16°C° 0.3 mm 5 m/s 740 mmHg 51%
18:00 +15°C° 0.3 mm 4 m/s 741 mmHg 57%
19:00 +14°C° 0.3 mm 4 m/s 741 mmHg 62%
20:00 +13°C° 0 mm 4 m/s 742 mmHg 61%
21:00 +12°C° 0 mm 5 m/s 742 mmHg 61%
22:00 +10°C° 0 mm 5 m/s 743 mmHg 61%
23:00 +11°C° 0 mm 4 m/s 744 mmHg 61%

Mâine, 27 Septembrie, Duminică

Timp Temperatura Precipitaţii Vânt Presiune Umiditate
00:00 +11°C° 0 mm 4 m/s 744 mmHg 61%
01:00 +10°C° 0 mm 3 m/s 745 mmHg 62%
02:00 +10°C° 0 mm 2 m/s 745 mmHg 63%
03:00 +11°C° 0 mm 1 m/s 746 mmHg 65%
04:00 +10°C° 0 mm 1 m/s 746 mmHg 66%
05:00 +10°C° 0 mm 1 m/s 746 mmHg 66%
06:00 +11°C° 0 mm 1 m/s 747 mmHg 66%
07:00 +10°C° 0 mm 2 m/s 747 mmHg 66%
08:00 +13°C° 0 mm 2 m/s 748 mmHg 59%
09:00 +13°C° 0 mm 3 m/s 748 mmHg 51%
10:00 +16°C° 0 mm 3 m/s 749 mmHg 44%
11:00 +17°C° 0 mm 4 m/s 749 mmHg 42%
12:00 +18°C° 0 mm 4 m/s 749 mmHg 39%
13:00 +20°C° 0 mm 4 m/s 749 mmHg 36%
14:00 +19°C° 0 mm 4 m/s 749 mmHg 38%
15:00 +19°C° 0 mm 5 m/s 748 mmHg 41%
16:00 +19°C° 0 mm 5 m/s 748 mmHg 43%
17:00 +17°C° 0 mm 5 m/s 748 mmHg 48%
18:00 +16°C° 0 mm 5 m/s 748 mmHg 53%
19:00 +15°C° 0 mm 5 m/s 748 mmHg 58%
20:00 +15°C° 0 mm 5 m/s 748 mmHg 58%
21:00 +15°C° 0 mm 6 m/s 748 mmHg 58%
22:00 +16°C° 0 mm 6 m/s 748 mmHg 58%
23:00 +16°C° 0.1 mm 7 m/s 747 mmHg 58%

Poimâine, 28 Septembrie, Luni

Timp Temperatura Precipitaţii Vânt Presiune Umiditate
00:00 +15°C° 0.1 mm 7 m/s 746 mmHg 57%
01:00 +15°C° 0.1 mm 8 m/s 746 mmHg 57%
02:00 +15°C° 0.2 mm 8 m/s 746 mmHg 62%
03:00 +15°C° 0.2 mm 7 m/s 746 mmHg 67%
04:00 +14°C° 0.2 mm 7 m/s 746 mmHg 72%
05:00 +15°C° 0 mm 6 m/s 746 mmHg 71%
06:00 +15°C° 0 mm 6 m/s 746 mmHg 70%
07:00 +15°C° 0 mm 5 m/s 746 mmHg 69%
08:00 +17°C° 0 mm 5 m/s 746 mmHg 61%
09:00 +20°C° 0 mm 5 m/s 747 mmHg 54%
10:00 +22°C° 0 mm 6 m/s 747 mmHg 46%
11:00 +23°C° 0 mm 6 m/s 747 mmHg 44%
12:00 +23°C° 0 mm 5 m/s 747 mmHg 42%
13:00 +23°C° 0 mm 5 m/s 747 mmHg 40%
14:00 +23°C° 0 mm 5 m/s 748 mmHg 41%
15:00 +22°C° 0 mm 5 m/s 748 mmHg 42%
16:00 +22°C° 0 mm 5 m/s 748 mmHg 43%
17:00 +20°C° 0.1 mm 4 m/s 748 mmHg 50%
18:00 +19°C° 0.1 mm 3 m/s 749 mmHg 57%
19:00 +17°C° 0.1 mm 2 m/s 749 mmHg 64%
20:00 +16°C° 0.1 mm 2 m/s 750 mmHg 68%
21:00 +16°C° 0.1 mm 2 m/s 750 mmHg 71%
22:00 +14°C° 0.1 mm 3 m/s 750 mmHg 74%
23:00 +13°C° 0 mm 3 m/s 750 mmHg 76%

29 Septembrie, Marţi

Timp Temperatura Precipitaţii Vânt Presiune Umiditate
00:00 +13°C° 0 mm 3 m/s 750 mmHg 78%
01:00 +12°C° 0 mm 3 m/s 751 mmHg 81%
02:00 +12°C° 0 mm 3 m/s 751 mmHg 81%
03:00 +13°C° 0 mm 2 m/s 751 mmHg 82%
04:00 +13°C° 0 mm 2 m/s 751 mmHg 82%
05:00 +12°C° 0 mm 3 m/s 752 mmHg 83%
06:00 +12°C° 0 mm 3 m/s 752 mmHg 84%
07:00 +12°C° 0 mm 4 m/s 752 mmHg 85%
08:00 +13°C° 0 mm 4 m/s 752 mmHg 80%
09:00 +14°C° 0 mm 4 m/s 752 mmHg 76%
10:00 +15°C° 0 mm 4 m/s 753 mmHg 72%
11:00 +17°C° 0 mm 4 m/s 753 mmHg 66%
12:00 +18°C° 0 mm 4 m/s 753 mmHg 59%
13:00 +19°C° 0 mm 4 m/s 752 mmHg 53%
14:00 +19°C° 0 mm 4 m/s 752 mmHg 51%
15:00 +19°C° 0 mm 5 m/s 752 mmHg 50%
16:00 +19°C° 0 mm 5 m/s 752 mmHg 48%
17:00 +18°C° 0 mm 4 m/s 753 mmHg 54%
18:00 +16°C° 0 mm 3 m/s 753 mmHg 59%
19:00 +14°C° 0 mm 2 m/s 753 mmHg 65%
20:00 +14°C° 0 mm 2 m/s 753 mmHg 67%
21:00 +14°C° 0 mm 2 m/s 754 mmHg 69%
22:00 +13°C° 0 mm 2 m/s 754 mmHg 71%
23:00 +13°C° 0 mm 2 m/s 754 mmHg 74%

30 Septembrie, Miercuri

Timp Temperatura Precipitaţii Vânt Presiune Umiditate
00:00 +12°C° 0 mm 2 m/s 754 mmHg 77%
01:00 +12°C° 0 mm 2 m/s 753 mmHg 80%
02:00 +12°C° 0 mm 2 m/s 753 mmHg 82%
03:00 +10°C° 0 mm 2 m/s 753 mmHg 83%
04:00 +10°C° 0 mm 2 m/s 753 mmHg 85%
05:00 +10°C° 0 mm 2 m/s 753 mmHg 83%
06:00 +12°C° 0 mm 2 m/s 753 mmHg 80%
07:00 +13°C° 0 mm 2 m/s 753 mmHg 78%
08:00 +14°C° 0 mm 3 m/s 753 mmHg 69%
09:00 +17°C° 0 mm 3 m/s 753 mmHg 60%
10:00 +19°C° 0 mm 3 m/s 753 mmHg 51%
11:00 +20°C° 0 mm 3 m/s 752 mmHg 49%
12:00 +21°C° 0 mm 3 m/s 752 mmHg 46%
13:00 +22°C° 0 mm 4 m/s 751 mmHg 44%
14:00 +22°C° 0 mm 3 m/s 751 mmHg 43%
15:00 +22°C° 0 mm 3 m/s 750 mmHg 43%
16:00 +23°C° 0 mm 2 m/s 750 mmHg 42%
17:00 +20°C° 0 mm 2 m/s 750 mmHg 48%
18:00 +18°C° 0 mm 2 m/s 750 mmHg 55%
19:00 +16°C° 0 mm 1 m/s 750 mmHg 61%
20:00 +16°C° 0 mm 1 m/s 750 mmHg 64%
21:00 +16°C° 0 mm 1 m/s 750 mmHg 67%
22:00 +15°C° 0 mm 1 m/s 750 mmHg 69%
23:00 +15°C° 0 mm 1 m/s 749 mmHg 71%

1 Octombrie, Joi

Timp Temperatura Precipitaţii Vânt Presiune Umiditate
00:00 +14°C° 0 mm 1 m/s 749 mmHg 74%
01:00 +14°C° 0 mm 1 m/s 749 mmHg 76%
02:00 +14°C° 0 mm 2 m/s 749 mmHg 76%
03:00 +14°C° 0 mm 2 m/s 749 mmHg 77%
04:00 +14°C° 0 mm 2 m/s 749 mmHg 77%
05:00 +14°C° 0 mm 2 m/s 749 mmHg 76%
06:00 +14°C° 0 mm 2 m/s 749 mmHg 74%
07:00 +15°C° 0 mm 2 m/s 749 mmHg 73%
08:00 +17°C° 0 mm 2 m/s 748 mmHg 65%
09:00 +19°C° 0 mm 2 m/s 748 mmHg 58%
10:00 +21°C° 0 mm 2 m/s 748 mmHg 51%
11:00 +21°C° 0 mm 2 m/s 748 mmHg 47%
12:00 +23°C° 0 mm 2 m/s 747 mmHg 44%
13:00 +24°C° 0 mm 2 m/s 747 mmHg 40%
14:00 +24°C° 0 mm 3 m/s 747 mmHg 40%
15:00 +25°C° 0 mm 3 m/s 746 mmHg 39%
16:00 +25°C° 0 mm 3 m/s 746 mmHg 39%
17:00 +23°C° 0 mm 2 m/s 746 mmHg 45%
18:00 +20°C° 0 mm 2 m/s 746 mmHg 51%
19:00 +18°C° 0 mm 2 m/s 747 mmHg 57%
20:00 +18°C° 0 mm 2 m/s 747 mmHg 57%
21:00 +18°C° 0 mm 2 m/s 747 mmHg 58%
22:00 +18°C° 0 mm 2 m/s 747 mmHg 58%
23:00 +17°C° 0 mm 2 m/s 747 mmHg 60%
Arată mai mult